This is the latest recevied weather packets stored in our database for station/object K2CCS. If no packets are shown the sender has not sent any weather packets the latest 10 day(s).
| Time | Temp. | Humidity | Pressure | Rain* | Wind** | Luminosity | Snow |
|---|---|---|---|---|---|---|---|
| 1777807816 | 6.67° C | 70% | 1014.9 hPa | 0 mm | - | 66 W/m² | - |
| 1777807514 | 6.11° C | 70% | 1015.1 hPa | 0 mm | - | 60 W/m² | - |
| 1777807210 | 6.11° C | 72% | 1015 hPa | 0 mm | - | 55 W/m² | - |
| 1777806907 | 6.11° C | 73% | 1015.1 hPa | 0 mm | - | 50 W/m² | - |
| 1777806603 | 5.56° C | 74% | 1015 hPa | 0 mm | - | 46 W/m² | - |
| 1777806299 | 5.56° C | 74% | 1015 hPa | 0 mm | - | 41 W/m² | - |
| 1777805996 | 5.56° C | 74% | 1014.9 hPa | 0 mm | - | 38 W/m² | - |
| 1777805692 | 5.56° C | 74% | 1014.8 hPa | 0 mm | - | 34 W/m² | - |
| 1777805390 | 5.56° C | 74% | 1014.7 hPa | 0 mm | - | 31 W/m² | - |
| 1777805088 | 5.56° C | 74% | 1014.7 hPa | 0 mm | - | 26 W/m² | - |
| 1777804785 | 5.56° C | 75% | 1014.7 hPa | 0 mm | - | 22 W/m² | - |
| 1777804483 | 5.56° C | 75% | 1014.8 hPa | 0 mm | - | 18 W/m² | - |
| 1777804180 | 5.56° C | 76% | 1014.7 hPa | 0 mm | - | 15 W/m² | - |
| 1777803877 | 5.56° C | 75% | 1014.8 hPa | 0 mm | - | 12 W/m² | - |
| 1777803572 | 5° C | 75% | 1014.8 hPa | 0 mm | - | 10 W/m² | - |
| 1777803270 | 5° C | 76% | 1014.6 hPa | 0 mm | - | 7 W/m² | - |
| 1777802967 | 5.56° C | 75% | 1014.7 hPa | 0 mm | - | 5 W/m² | - |
| 1777802665 | 5.56° C | 75% | 1014.8 hPa | 0 mm | - | 4 W/m² | - |
| 1777802362 | 5° C | 75% | 1014.8 hPa | 0 mm | - | 3 W/m² | - |
| 1777802061 | 5° C | 76% | 1014.7 hPa | 0 mm | - | 2 W/m² | - |
| 1777801758 | 5° C | 76% | 1014.8 hPa | 0 mm | - | 0 W/m² | - |
| 1777801455 | 5° C | 75% | 1014.6 hPa | 0 mm | - | 0 W/m² | - |
| 1777801151 | 5° C | 76% | 1014.8 hPa | 0 mm | - | 0 W/m² | - |
| 1777800849 | 5° C | 76% | 1014.8 hPa | 0 mm | - | 0 W/m² | - |
| 1777800549 | 5° C | 75% | 1014.8 hPa | 0 mm | - | 0 W/m² | - |
* Rain latest hour (hover to see other rain measurements)
** Current wind speed in m/s (hover to see current wind gust speed)